• Join FlightAware (Why Join?)
  • Login
  • US Flag 
05:27AM EST


 

Airport Tracker/Info


-or-


 

Live Flight TrackerFlight Track Log ✈ FLG4222 ✈ 26-Sep-2013 ✈ KDTW - KBGM

Flight Track Log - Related Links

Times and Time Zones

All times are in EDT time to prevent confusion due to time zone crossing. See the FLG4222 flight status page for this flight to view local times or setup timezone preferences in your user account.

Time Position Orientation Groundspeed Altitude Reporting Facility
EDT Latitude Longitude Course Direction KTS MPH feet Rate Location/Type
10:06AM 42.2081 -83.3675 185° South 155 178 1,200  Level Cleveland Center
10:06AM 42.1869 -83.3700 185° South 163 188 2,300 2,242 Climbing Cleveland Center
10:07AM 42.1303 -83.3706 180° South 222 255 4,600 1,976 Climbing Cleveland Center
10:08AM 42.1108 -83.3675 173° South 215 247 5,100 3,049 Climbing Cleveland Center
10:08AM 42.0717 -83.3425 155° Southeast 241 277 7,700 3,387 Climbing Cleveland Center
10:09AM 42.0731 -83.3106 87° East 237 273 8,600 1,655 Climbing Cleveland Center
10:10AM 42.1056 -83.2189 64° Northeast 270 311 10,100 968 Climbing Cleveland Center
10:11AM 42.1422 -83.1128 65° Northeast 343 395 10,600 1,355 Climbing Cleveland Center
10:12AM 42.1919 -82.9681 65° Northeast 357 411 12,900 1,839 Climbing Cleveland Center
10:13AM 42.2336 -82.8453 65° Northeast 362 417 14,400 1,403 Climbing Cleveland Center
10:14AM 42.2767 -82.7183 65° Northeast 372 428 15,800 1,306 Climbing Cleveland Center
10:15AM 42.3194 -82.5903 66° East 375 432 17,100 1,210 Climbing Cleveland Center
10:16AM 42.3631 -82.4608 65° Northeast 378 435 18,300 1,210 Climbing Cleveland Center
10:17AM 42.3608 -82.2850 91° East 392 451 19,600 1,113 Climbing Cleveland Center
10:18AM 42.3544 -82.1403 93° East 394 453 20,600 968 Climbing Cleveland Center
10:19AM 42.3478 -81.9878 93° East 400 460 21,600 968 Climbing Cleveland Center
10:20AM 42.3408 -81.8331 93° East 406 467 22,600 968 Climbing Cleveland Center
10:21AM 42.3333 -81.6811 94° East 403 464 23,600 968 Climbing Cleveland Center
10:22AM 42.3261 -81.5269 94° East 406 467 24,600 912 Climbing Cleveland Center
10:23AM 42.3181 -81.3472 93° East 406 467 25,500 672 Climbing Cleveland Center
10:24AM 42.3097 -81.1878 94° East 419 482 26,000 484 Climbing Cleveland Center
10:25AM 42.3011 -81.0272 94° East 424 488 26,500 484 Climbing Cleveland Center
10:26AM 42.2928 -80.8656 94° East 428 493 27,000 484 Climbing Cleveland Center
10:27AM 42.2839 -80.7011 94° East 433 498 27,500 484 Climbing Cleveland Center
10:28AM 42.2758 -80.5392 94° East 430 495 28,000 484 Climbing Cleveland Center
10:29AM 42.2658 -80.3733 95° East 437 503 28,500 484 Climbing Cleveland Center
10:30AM 42.2572 -80.2089 94° East 437 503 29,000 242 Climbing Cleveland Center
10:31AM 42.2458 -80.0161 94° East 439 505 29,000  Level Cleveland Center
10:32AM 42.2347 -79.8461 95° East 443 510 29,000  Level Cleveland Center
10:33AM 42.2239 -79.6789 95° East 449 517 29,000  Level Cleveland Center
10:34AM 42.2136 -79.5111 95° East 450 518 29,000  Level Cleveland Center
10:35AM 42.2019 -79.3442 95° East 450 518 29,000  Level Cleveland Center
10:37AM 42.1914 -79.1758 95° East 452 520 29,000  Level Cleveland Center
10:38AM 42.1911 -78.9750 90° East 450 518 29,000 -484 Level Cleveland Center
10:39AM 42.1928 -78.8058 89° East 450 518 28,000 -480 Descending Cleveland Center
10:40AM 42.1958 -78.6400 89° East 447 514 28,000  Level Cleveland Center
10:41AM 42.1986 -78.4758 89° East 442 509 28,000  Level Cleveland Center
10:42AM 42.2011 -78.3108 89° East 443 510 28,000 -339 Level Cleveland Center
10:43AM 42.2042 -78.1139 89° East 442 509 27,300 -1,016 Descending Cleveland Center
10:44AM 42.2053 -77.9489 89° East 443 510 25,900 -1,355 Descending Cleveland Center
10:45AM 42.2069 -77.7825 89° East 447 514 24,500 -1,548 Descending Cleveland Center
10:46AM 42.2075 -77.6208 90° East 442 509 22,700 -1,935 Descending Cleveland Center
10:47AM 42.2092 -77.4608 89° East 436 502 20,500 -2,371 Descending Cleveland Center
10:48AM 42.2097 -77.2767 90° East 417 480 17,800 -1,694 Descending Cleveland Center
10:49AM 42.2111 -77.1322 89° East 394 453 17,000 -485 Descending Cleveland Center
10:50AM 42.2094 -77.0450 91° East 390 449 17,000 -505 Level New York Center
10:51AM 42.2108 -76.8994 89° East 384 442 16,200 -1,300 Descending New York Center
10:52AM 42.2106 -76.7844 90° East 384 442 14,400 -2,022 Descending New York Center
10:52AM 42.2111 -76.7064 89° East 383 441 13,100 -2,609 Descending Cleveland Center
10:53AM 42.2100 -76.5458 90° East 361 415 10,400 -1,597 Descending Cleveland Center
10:54AM 42.2014 -76.4236 95° East 331 381 9,800 -823 Descending Cleveland Center
10:55AM 42.1397 -76.3481 138° Southeast 289 333 8,700 -1,210 Descending Cleveland Center
10:56AM 42.0831 -76.2833 140° Southeast 285 328 7,300 -1,645 Descending Cleveland Center
10:57AM 42.0269 -76.2192 140° Southeast 271 312 5,300 -1,113 Descending Cleveland Center
10:58AM 42.0258 -76.1269 91° East 255 293 5,000 -609 Descending Cleveland Center
11:00AM 42.0511 -76.0158 73° East 227 261 3,900 -529 Descending New York Center
11:01AM 42.0811 -75.9514 58° Northeast 222 255 3,800 -248 Descending New York Center
11:02AM 42.1236 -75.9294 21° North 177 204 3,400 -639 Descending New York Center
11:03AM 42.1625 -75.9436 345° North 141 162 2,500 -712 Descending New York Center
11:03AM 42.2019 -75.9494 354° North 130 150 2,000 -526 Descending New York Center